Flag for United Kingdom Weather past 2 weeks in Cardiff, Wales, United Kingdom

46 °F

Light rain. Partly cloudy.

Feels Like: 37 °F
Forecast: N/A
Wind: 30 mph from Northwest

Location: Wales Airport

Current Time: Nov 27, 2015 at 5:20:25 PM

Latest Report: Nov 27, 2015 at 4:50 PM

Visibility: 5 mi

Pressure: 29.71 "Hg

Humidity: 93%

Dew point: 45 °F

Location of CardiffLocation

Historic Weather in Cardiff — Graph


Cardiff temperature yesterday

Maximum temperature yesterday: 54 °F (at 11:50 AM)
Minimum temperature yesterday: 48 °F (at 12:20 AM)
Average temperature yesterday: 51 °F

Past Weeks' High & Low Weather Summary

High59 °F (Nov 17, 12:50 PM)100% (Nov 17, 12:20 AM)30.30 "Hg (Nov 17, 12:20 AM)
Low30 °F (Nov 23, 7:20 AM)53% (Nov 21, 12:50 PM)29.50 "Hg (Nov 17, 12:50 PM)
Average49 °F86%29.95 "Hg
* Reported Nov 12 4:20 PM — Nov 27 4:20 PM, Cardiff, Weather by CustomWeather, © 2015

Note: Actual official high and low records may vary slightly from our data, if they occured in-between our weather recording intervals... More about our weather records


Cardiff weather history for previous 24 hours

Time TempWeatherWind HumidityBarometerVisibility
4:20 PM
Fri, Nov 27
50 °FScattered showers. Partly cloudy.31 mph94%29.65 "HgN/A
3:50 PM54 °FLight rain. Partly sunny.12 mph88%29.65 "Hg4 mi
3:20 PM54 °FPartly sunny.12 mph88%29.65 "HgN/A
2:50 PM52 °FPartly sunny.12 mph94%29.68 "HgN/A
2:20 PM52 °FLight rain. Partly sunny.10 mph100%29.71 "Hg4 mi
1:50 PM54 °FBroken clouds.13 mph88%29.71 "HgN/A
1:20 PM54 °FScattered showers. Broken clouds.13 mph88%29.74 "HgN/A
12:50 PM54 °FScattered showers. Partly sunny.12 mph88%29.77 "HgN/A
12:20 PM52 °FMostly cloudy.12 mph94%29.77 "HgN/A
11:50 AM52 °FBroken clouds.14 mph94%29.80 "HgN/A
11:20 AM52 °FScattered clouds.10 mph94%29.83 "HgN/A
10:50 AM52 °FScattered showers. Partly sunny.13 mph94%29.83 "HgN/A
10:20 AM52 °FScattered showers. Partly sunny.15 mph94%29.83 "HgN/A
9:50 AM52 °FScattered showers. Partly sunny.14 mph94%29.86 "HgN/A
9:20 AM52 °FScattered showers. Broken clouds.13 mph94%29.89 "HgN/A
8:50 AM52 °FDrizzle. Broken clouds.13 mph94%29.89 "HgN/A
8:20 AM52 °FPartly sunny.13 mph94%29.89 "HgN/A
7:50 AM50 °FRain. Partly sunny.15 mph100%29.92 "Hg3 mi
6:50 AM52 °FPassing clouds.16 mph100%29.92 "Hg2 mi
6:20 AM52 °FLow clouds.16 mph100%29.92 "HgN/A
5:50 AM54 °FFog.13 mph94%29.95 "Hg1 mi
5:20 AM54 °FLow clouds.12 mph94%29.95 "HgN/A
4:50 AM54 °FLow clouds.9 mph100%29.98 "HgN/A
3:50 AM54 °FMostly cloudy.10 mph100%29.98 "HgN/A
3:20 AM54 °FFog.8 mph100%30.01 "Hg1 mi
2:50 AM54 °FLight rain. Low clouds.10 mph100%30.01 "HgN/A
2:20 AM54 °FFog.13 mph100%30.04 "Hg2 mi
1:50 AM54 °FFog.12 mph100%30.04 "Hg1 mi
1:20 AM54 °FRain. Low clouds.9 mph100%30.07 "Hg1 mi
12:50 AM54 °FDrizzle. Low clouds.10 mph94%30.07 "Hg1 mi
12:20 AM54 °FDrizzle. Low clouds.10 mph100%30.09 "Hg1 mi
11:50 PM
Thu, Nov 26
54 °FLight rain. Low clouds.10 mph100%30.09 "HgN/A
11:20 PM54 °FLow clouds.9 mph100%30.09 "HgN/A
10:50 PM54 °FLow clouds.10 mph100%30.09 "HgN/A
9:50 PM54 °FPassing clouds.8 mph94%30.12 "Hg4 mi
9:20 PM54 °FPassing clouds.8 mph94%30.12 "HgN/A
8:50 PM52 °FPassing clouds.9 mph100%30.12 "HgN/A
8:20 PM52 °FPassing clouds.6 mph100%30.15 "HgN/A
7:50 PM54 °FPassing clouds.6 mph94%30.15 "HgN/A
7:20 PM52 °FOvercast.8 mph100%30.15 "HgN/A
6:50 PM52 °FPassing clouds.8 mph100%30.15 "HgN/A
6:20 PM52 °FPassing clouds.7 mph100%30.15 "HgN/A
5:50 PM52 °FLow clouds.7 mph100%30.15 "HgN/A
5:20 PM52 °FMostly cloudy.7 mph100%30.15 "HgN/A
Weather by CustomWeather, © 2015

See weather overviewHow to use our weather pages